Regional Weather Roundup
Issued by NWS

Home | Current Version | Previous Version | Graphics & Text | Print | Product List | Glossary On
Versions: 1 2 3 4 5 6 7 8 9 10 11 12 13 14 15 16 17 18 19 20 21 22 23 24 25 26 27 28 29 30 31 32 33 34 35 36 37 38 39 40 41 42 43 44 45 46 47 48 49 50
000
ASUS43 KFSD 222202
RWRSD

WEATHER ROUNDUP FOR SOUTH DAKOTA
NATIONAL WEATHER SERVICE SIOUX FALLS SD
500 PM CDT WED MAR 22 2017

NOTE: "FAIR" INDICATES FEW OR NO CLOUDS BELOW 12,000 FEET WITH NO
SIGNIFICANT WEATHER AND/OR OBSTRUCTIONS TO VISIBILITY.


SDZ001>005-009-010-012>017-222300-
NORTHWEST AND NORTH CENTRAL SOUTH DAKOTA

CITY           SKY/WX    TMP DP  RH WIND       PRES   REMARKS
BUFFALO          N/A     59  38  45 S8        29.72F
FAITH            N/A     63  39  41 S17G23    29.78F
MOBRIDGE       MOSUNNY   47  30  51 SE28G33   29.89F
$$

SDZ012>016-024>037-041>051-057-063-072>074-222300-
SOUTHWEST AND SOUTH CENTRAL SOUTH DAKOTA

CITY           SKY/WX    TMP DP  RH WIND       PRES   REMARKS
RAPID CTY ARPT SUNNY     62  43  49 N12       29.76F
PIERRE         SUNNY     55  31  39 S28G40    29.89F
CUSTER         LGT RAIN  55  38  52 SW9G26    29.85R
ELLSWORTH AFB  SUNNY     61  44  53 N15       29.77S
PHILIP         CLOUDY    66  38  35 S18G26    29.78F
PINE RIDGE     SUNNY     64  39  39 S23G29    29.81F
SPEARFISH      FAIR      57  39  51 CALM      29.81F
WINNER         FAIR      55  29  36 S28G35    29.95F
$$

SDZ004>011-016>023-039-040-222300-
NORTHEAST SOUTH DAKOTA

CITY           SKY/WX    TMP DP  RH WIND       PRES   REMARKS
ABERDEEN       CLOUDY    36  24  62 S21G30    30.09S
WATERTOWN      CLOUDY    32  22  66 SE21G30   30.13F WCI  20
BROOKINGS      CLOUDY    34  22  61 SE25G31   30.17F WCI  21
SISSETON         N/A     33  25  72 S21G31    30.17F WCI  21
$$

SDZ017-020-022-023-036>040-048>070-222300-
SOUTHEAST SOUTH DAKOTA

CITY           SKY/WX    TMP DP  RH WIND       PRES   REMARKS
SIOUX FALLS    CLOUDY    38  24  57 SE17G25   30.21F
HURON          CLOUDY    38  24  57 SE20G33   30.08F
CHAMBERLAIN    MOSUNNY   44  30  57 SE24G30   30.00F
MITCHELL       CLOUDY    40  25  55 SE21G32   30.12F
YANKTON        PTSUNNY   43  23  45 SE16G22   30.17F
$$

ABBREVIATIONS USED IN REMARKS
   TC - TEMPERATURE IN CELSIUS
  WCI - WIND CHILL INDEX
   HX - HEAT INDEX
  VSB - VISIBILITY




USA.gov is the U.S. government's official web portal to all federal, state and local government web resources and services.